Location: Waco, TX
(31.5480°N, 97.1670°W)
Time: 22:18:08
(UTC-05:00)

ISS - Pass Details

Date: 14 September 2018
Orbit: 403 x 409 km, 51.6° (Epoch: 24 September)

Event Time Altitude Azimuth Distance (km) Brightness Sun altitude
Rises 06:33:42 0° 328° (NNW) 2,320 -0.2 -9.0°
Reaches altitude 10° 06:36:07 10° 345° (NNW) 1,457 -1.1 -8.5°
Maximum altitude 06:38:42 21° 37° (NE) 955 -1.3 -7.9°
Drops below altitude 10° 06:41:17 10° 90° (E) 1,450 0.7 -7.4°
Sets 06:43:40 0° 107° (ESE) 2,305 1.4 -6.9°
